Regional Weather Roundup
Issued by NWS

Home | Current Version | Previous Version | Text Only | Print | Product List | Glossary On
Versions: 1 2 3 4 5 6 7 8 9 10 11 12 13 14 15 16 17 18 19 20 21 22 23 24 25 26 27 28 29 30 31 32 33 34 35 36 37 38 39 40 41 42 43 44 45 46 47 48 49 50
000
ASUS44 KMEG 190710
RWRTN
TENNESSEE HOURLY STATE WEATHER ROUNDUP
NATIONAL WEATHER SERVICE MEMPHIS TN
100 AM CST SUN NOV 19 2017

TNZ002-004-019-021-049-052-054-088>092-190800-
WEST TENNESSEE

CITY           SKY/WX    TMP DP  RH WIND       PRES   REMARKS
MEMPHIS INTL   CLEAR     44  35  70 NW12      30.12R
NWS MEMPHIS      N/A     43 N/A N/A MISG        N/A
JACKSON        CLEAR     42  35  76 W6        30.09R
DYERSBURG      CLEAR     42  35  76 W5          N/A
COVINGTON      CLEAR     41  34  75 NW5       30.10S
UNION CITY     CLEAR     41  34  75 NW6       30.07R
BOLIVAR        CLEAR     43  34  70 W3        30.08S
PARIS          CLEAR     39  34  81 W5        30.04R
HUNTINGDON     PTCLDY    41  34  75 CALM      30.05R
LEXINGTON      PTCLDY    43  34  70 NW7       30.05S
SELMER         CLEAR     43  36  75 NW6       30.06S
SAVANNAH       MOCLDY    45  36  70 NW5       30.06R
$$

TNZ008-025-027-028-033-062-065-066-190800-
NORTH MIDDLE TENNESSEE

CITY           SKY/WX    TMP DP  RH WIND       PRES   REMARKS
NASHVILLE      CLOUDY    46  34  62 NW16G23   30.00R
PORTLAND       CLOUDY    43  34  70 NW8G17    29.97R
CLARKSVILLE    CLOUDY    43  33  68 NW14G23   30.01R
SMYRNA         CLOUDY    44  35  70 NW13      30.01R
COOKEVILLE     CLOUDY    41  36  81 NW7       29.95S
GALLATIN       CLOUDY    45  37  76 W8G14     30.01S
CROSSVILLE     CLOUDY    37  35  92 NW14G22   29.92R FOG     WCI  28
$$

TNZ061-075-076-078-094-096-097-190800-
SOUTH MIDDLE TENNESSEE

CITY           SKY/WX    TMP DP  RH WIND       PRES   REMARKS
FAYETTEVILLE   CLOUDY    45  39  81 NW9G15    29.98S
TULLAHOMA      CLOUDY    43  37  81 NW12      29.97S
WINCHESTER     CLOUDY    41  37  87 NW12      29.98F
MCMINNVILLE    CLOUDY    43  36  75 N8G23     29.97F
COLUMBIA       CLOUDY    45  37  76 VRB6      30.00R
SHELBYVILLE    CLOUDY    43  39  87 NW8       29.99S
$$

TNZ017-018-042-046-047-190800-
NORTHEAST TENNESSEE

CITY           SKY/WX    TMP DP  RH WIND       PRES   REMARKS
TRI CITIES     CLOUDY    46  42  86 W17G26    29.79R
ELIZABETHTON     N/A     48  41  76 W18G25    29.77R
$$

TNZ012-013-036-069-073-074-190800-
CENTRAL EAST TENNESSEE

CITY           SKY/WX    TMP DP  RH WIND       PRES   REMARKS
KNOXVILLE      MOCLDY    45  41  86 W10       29.88R
OAK RIDGE      CLOUDY    45  39  79 CALM      29.92R
DOWNTOWN KNOXV CLOUDY    46  39  76 NW5G13    29.89R
GATLINBURG     CLOUDY    46  41  81 NW3       29.88R
MORRISTOWN     CLOUDY    45  37  76 NW9G18    29.85R
$$

TNZ083-085-099-190800-
SOUTHEAST TENNESSEE

CITY           SKY/WX    TMP DP  RH WIND       PRES   REMARKS
CHATTANOOGA    CLOUDY    46  37  71 NW18G28   29.95R
$$

SKY/WX REPORTED AS FAIR MEANS FEW OR NO CLOUDS BELOW
12 THOUSAND FEET.




USA.gov is the U.S. government's official web portal to all federal, state and local government web resources and services.